DLH8HP ENTC-EDDF

Flight info

Callsign DLH8HP
Flight time N/A
Altitude 36000
Route AMIMO DCT SOMUB DCT ULMUG DCT AMSEV DCT KUGAL DCT EEL DCT SOGPO/N0439F370 DCT DIXAT DIXAT1A
Aircraft A321/M-SDE2E3FGIJ1LORWXYZ/HB1

Departure

Time N/A
Airport Tromsø Airport (ENTC)

Arrival

Time 2026-05-04 13:31
Airport Frankfurt Main Airport (EDDF)
Time Latitude Longitude Altitude Speed Heading
2026-05-04 12:25 56.13444 8.10087 36026 ft 450 kts 197°
2026-05-04 12:26 56.07363 8.07442 36024 ft 450 kts 197°
2026-05-04 12:26 56.01281 8.04808 36015 ft 449 kts 197°
2026-05-04 12:27 55.95207 8.02176 36027 ft 449 kts 197°
2026-05-04 12:27 55.89187 7.99579 36031 ft 448 kts 197°
2026-05-04 12:28 55.83124 7.96976 36035 ft 448 kts 197°
2026-05-04 12:28 55.77063 7.94370 36031 ft 448 kts 197°
2026-05-04 12:29 55.71007 7.91784 36037 ft 448 kts 197°
2026-05-04 12:29 55.64945 7.89218 36037 ft 448 kts 197°
2026-05-04 12:30 55.58886 7.86646 36039 ft 448 kts 197°
2026-05-04 12:30 55.52834 7.84071 36027 ft 447 kts 197°
2026-05-04 12:31 55.46786 7.81510 36044 ft 446 kts 197°
2026-05-04 12:31 55.40746 7.78970 36050 ft 446 kts 197°
2026-05-04 12:32 55.31747 7.75220 36051 ft 445 kts 197°
2026-05-04 12:33 55.25718 7.72702 36030 ft 445 kts 196°
2026-05-04 12:33 55.19693 7.70202 36044 ft 445 kts 196°
2026-05-04 12:34 55.13667 7.67704 36053 ft 445 kts 196°
2026-05-04 12:34 55.07651 7.65219 36058 ft 444 kts 196°
2026-05-04 12:35 55.01632 7.62747 36040 ft 444 kts 196°
2026-05-04 12:35 54.95668 7.60007 36052 ft 442 kts 200°
2026-05-04 12:36 54.89818 7.56728 36057 ft 441 kts 201°
2026-05-04 12:36 54.83989 7.53389 36058 ft 441 kts 201°
2026-05-04 12:37 54.78136 7.50178 36058 ft 441 kts 200°
2026-05-04 12:37 54.72270 7.47054 36056 ft 440 kts 200°
2026-05-04 12:38 54.66461 7.43974 36062 ft 439 kts 200°
2026-05-04 12:38 54.60621 7.40863 36063 ft 439 kts 200°
2026-05-04 12:39 54.54792 7.37743 36064 ft 438 kts 200°
2026-05-04 12:39 54.48965 7.34643 36055 ft 438 kts 200°
2026-05-04 12:40 54.43145 7.31566 36063 ft 437 kts 200°
2026-05-04 12:40 54.37339 7.28508 36063 ft 436 kts 200°
2026-05-04 12:41 54.31531 7.25454 36061 ft 436 kts 200°
2026-05-04 12:41 54.25733 7.22405 36051 ft 435 kts 200°
2026-05-04 12:42 54.19945 7.19377 36062 ft 434 kts 200°
2026-05-04 12:42 54.14210 7.16396 36069 ft 433 kts 200°
2026-05-04 12:43 54.08446 7.13392 36059 ft 433 kts 200°
2026-05-04 12:43 54.02685 7.10401 36051 ft 432 kts 200°
2026-05-04 12:44 53.96938 7.07439 36059 ft 431 kts 200°
2026-05-04 12:44 53.91200 7.04480 36058 ft 430 kts 200°
2026-05-04 12:45 53.85472 7.01538 36063 ft 430 kts 200°
2026-05-04 12:45 53.79745 6.98601 36052 ft 430 kts 200°
2026-05-04 12:46 53.74034 6.95677 36043 ft 428 kts 200°
2026-05-04 12:46 53.68336 6.92774 36047 ft 427 kts 200°
2026-05-04 12:47 53.62651 6.89882 36044 ft 426 kts 200°
2026-05-04 12:47 53.56975 6.87001 36042 ft 426 kts 200°
2026-05-04 12:48 53.51304 6.84134 36023 ft 425 kts 201°
2026-05-04 12:48 53.45646 6.81284 36036 ft 424 kts 201°
2026-05-04 12:49 53.39992 6.78444 36046 ft 423 kts 201°
2026-05-04 12:49 53.34353 6.75628 36030 ft 423 kts 201°
2026-05-04 12:50 53.28712 6.72815 36030 ft 423 kts 201°
2026-05-04 12:50 53.23079 6.69998 36027 ft 422 kts 201°
2026-05-04 12:51 53.17444 6.67188 36026 ft 422 kts 201°
2026-05-04 12:51 53.11736 6.64751 36025 ft 425 kts 197°
2026-05-04 12:52 53.05934 6.62817 36015 ft 425 kts 195°
2026-05-04 12:52 53.00125 6.60922 36018 ft 425 kts 196°
2026-05-04 12:53 52.94378 6.58935 36024 ft 425 kts 196°
2026-05-04 12:53 52.88554 6.56867 36019 ft 425 kts 196°
2026-05-04 12:54 52.82774 6.54825 36002 ft 425 kts 196°
2026-05-04 12:54 52.77035 6.52822 36007 ft 424 kts 196°
2026-05-04 12:55 52.71266 6.50815 36009 ft 424 kts 196°
2026-05-04 12:55 52.65494 6.48819 36010 ft 423 kts 196°
2026-05-04 12:56 52.59732 6.46816 36014 ft 423 kts 196°
2026-05-04 12:56 52.53982 6.44831 36020 ft 422 kts 195°
2026-05-04 12:57 52.48249 6.42865 36018 ft 420 kts 195°
2026-05-04 12:57 52.42537 6.40899 36013 ft 419 kts 196°
2026-05-04 12:58 52.36833 6.38938 36015 ft 418 kts 195°
2026-05-04 12:58 52.31139 6.36999 36013 ft 418 kts 195°
2026-05-04 12:59 52.25454 6.35059 36019 ft 417 kts 195°
2026-05-04 12:59 52.19777 6.33127 36010 ft 416 kts 195°
2026-05-04 13:00 52.14107 6.31201 36011 ft 416 kts 195°
2026-05-04 13:00 52.08443 6.29285 35999 ft 416 kts 195°
2026-05-04 13:01 52.02814 6.27398 36012 ft 416 kts 193°
2026-05-04 13:01 51.99917 6.27041 36011 ft 421 kts 182°
2026-05-04 13:01 51.96993 6.27658 36011 ft 428 kts 171°
2026-05-04 13:01 51.94159 6.29260 36012 ft 436 kts 159°
2026-05-04 13:02 51.91548 6.31831 36010 ft 445 kts 147°
2026-05-04 13:02 51.86726 6.38139 35974 ft 446 kts 147°
2026-05-04 13:03 51.81892 6.44447 35996 ft 446 kts 147°
2026-05-04 13:03 51.77055 6.50736 36006 ft 446 kts 147°
2026-05-04 13:04 51.72216 6.57005 36006 ft 446 kts 147°
2026-05-04 13:04 51.67367 6.63271 36013 ft 447 kts 147°
2026-05-04 13:05 51.62522 6.69519 36009 ft 446 kts 147°
2026-05-04 13:05 51.57677 6.75735 35996 ft 445 kts 147°
2026-05-04 13:06 51.52828 6.81953 36002 ft 445 kts 147°
2026-05-04 13:06 51.48029 6.88094 36005 ft 445 kts 147°
2026-05-04 13:07 51.43185 6.94268 36001 ft 444 kts 147°
2026-05-04 13:07 51.40769 6.97342 35875 ft 444 kts 147°
2026-05-04 13:07 51.38353 7.00415 35617 ft 443 kts 148°
2026-05-04 13:07 51.35940 7.03479 35348 ft 442 kts 147°
2026-05-04 13:08 51.33530 7.06537 35104 ft 441 kts 148°
2026-05-04 13:08 51.31127 7.09584 34828 ft 441 kts 148°
2026-05-04 13:08 51.28711 7.12638 34057 ft 443 kts 148°
2026-05-04 13:08 51.26203 7.15442 33130 ft 438 kts 156°
2026-05-04 13:09 51.23520 7.17671 32300 ft 433 kts 160°
2026-05-04 13:09 51.20813 7.19798 31436 ft 434 kts 159°
2026-05-04 13:09 51.18114 7.21928 30566 ft 434 kts 159°
2026-05-04 13:09 51.15398 7.24074 29501 ft 437 kts 159°
2026-05-04 13:10 51.12672 7.26233 28526 ft 437 kts 158°
2026-05-04 13:10 51.09958 7.28398 27487 ft 438 kts 157°
2026-05-04 13:10 51.07223 7.30624 26402 ft 441 kts 156°
2026-05-04 13:10 51.04528 7.32861 25856 ft 432 kts 156°
2026-05-04 13:11 51.01867 7.35088 25271 ft 435 kts 156°
2026-05-04 13:11 51.00087 7.36575 24866 ft 436 kts 156°
2026-05-04 13:11 50.97365 7.38837 24250 ft 435 kts 156°
2026-05-04 13:11 50.94718 7.41021 23654 ft 433 kts 156°
2026-05-04 13:12 50.92054 7.43210 22991 ft 430 kts 156°
2026-05-04 13:12 50.89414 7.45368 22408 ft 426 kts 156°
2026-05-04 13:12 50.86791 7.47507 21815 ft 423 kts 155°
2026-05-04 13:12 50.84150 7.49672 21237 ft 419 kts 155°
2026-05-04 13:13 50.81582 7.51772 20690 ft 415 kts 155°
2026-05-04 13:13 50.79052 7.53837 20134 ft 413 kts 155°
2026-05-04 13:13 50.76506 7.55910 19599 ft 410 kts 155°
2026-05-04 13:13 50.73992 7.58020 19067 ft 409 kts 150°
2026-05-04 13:14 50.71813 7.60904 18548 ft 411 kts 134°
2026-05-04 13:14 50.70223 7.64653 17999 ft 413 kts 121°
2026-05-04 13:14 50.68858 7.68625 17402 ft 410 kts 121°
2026-05-04 13:14 50.67514 7.72584 16839 ft 406 kts 121°
2026-05-04 13:15 50.66187 7.76507 16258 ft 403 kts 121°
2026-05-04 13:15 50.64873 7.80386 15712 ft 399 kts 121°
2026-05-04 13:15 50.63582 7.84169 15173 ft 395 kts 121°
2026-05-04 13:15 50.62282 7.87964 14629 ft 392 kts 121°
2026-05-04 13:16 50.60997 7.91714 14098 ft 389 kts 121°
2026-05-04 13:16 50.59715 7.95438 13540 ft 385 kts 121°
2026-05-04 13:16 50.58438 7.99129 13011 ft 383 kts 121°
2026-05-04 13:16 50.57167 8.02795 12513 ft 380 kts 121°
2026-05-04 13:17 50.55905 8.06433 12015 ft 377 kts 121°
2026-05-04 13:17 50.54652 8.10042 11548 ft 375 kts 121°
2026-05-04 13:17 50.53407 8.13624 11072 ft 372 kts 121°
2026-05-04 13:17 50.52171 8.17184 10604 ft 370 kts 121°
2026-05-04 13:18 50.50946 8.20717 10160 ft 367 kts 120°
2026-05-04 13:18 50.49729 8.24223 9956 ft 359 kts 121°
2026-05-04 13:18 50.48574 8.27549 9990 ft 335 kts 121°
2026-05-04 13:18 50.47492 8.30656 9991 ft 314 kts 121°
2026-05-04 13:19 50.46472 8.33564 9990 ft 296 kts 121°
2026-05-04 13:19 50.45487 8.36361 9975 ft 291 kts 121°
2026-05-04 13:19 50.44504 8.39144 9986 ft 292 kts 121°
2026-05-04 13:19 50.43520 8.41937 9986 ft 292 kts 122°
2026-05-04 13:20 50.42541 8.44724 9988 ft 292 kts 121°
2026-05-04 13:20 50.41562 8.47512 9987 ft 292 kts 121°
2026-05-04 13:20 50.40581 8.50302 9988 ft 291 kts 121°
2026-05-04 13:20 50.39615 8.53048 9982 ft 292 kts 121°
2026-05-04 13:21 50.38627 8.55855 9989 ft 302 kts 122°
2026-05-04 13:21 50.37587 8.58785 9988 ft 312 kts 121°
2026-05-04 13:21 50.36528 8.61765 9992 ft 314 kts 121°
2026-05-04 13:21 50.35466 8.64747 9770 ft 314 kts 121°
2026-05-04 13:22 50.34412 8.67721 9372 ft 311 kts 121°
2026-05-04 13:22 50.33368 8.70675 8991 ft 310 kts 121°
2026-05-04 13:22 50.32210 8.73490 8588 ft 305 kts 135°
2026-05-04 13:22 50.30542 8.75448 8197 ft 299 kts 152°
2026-05-04 13:23 50.28736 8.77028 7874 ft 293 kts 154°
2026-05-04 13:23 50.27018 8.78495 7737 ft 269 kts 154°
2026-05-04 13:23 50.25443 8.79847 7584 ft 249 kts 154°
2026-05-04 13:23 50.23969 8.81124 7139 ft 240 kts 154°
2026-05-04 13:24 50.22521 8.82376 6636 ft 242 kts 154°
2026-05-04 13:24 50.21073 8.83708 6209 ft 242 kts 150°
2026-05-04 13:24 50.19674 8.85164 5759 ft 241 kts 149°
2026-05-04 13:25 50.16915 8.88078 5062 ft 233 kts 149°
2026-05-04 13:25 50.15634 8.89441 4951 ft 213 kts 149°
2026-05-04 13:25 50.14469 8.90704 4806 ft 198 kts 149°
2026-05-04 13:25 50.13340 8.91883 4543 ft 192 kts 157°
2026-05-04 13:26 50.12090 8.92098 4250 ft 179 kts 202°
2026-05-04 13:26 50.11266 8.90784 4040 ft 177 kts 253°
2026-05-04 13:26 50.11132 8.88850 4001 ft 179 kts 261°
2026-05-04 13:26 50.10729 8.87020 3999 ft 180 kts 248°
2026-05-04 13:27 50.10291 8.85202 3859 ft 178 kts 249°
2026-05-04 13:27 50.09861 8.83385 3649 ft 179 kts 249°
2026-05-04 13:27 50.09432 8.81571 3430 ft 180 kts 249°
2026-05-04 13:27 50.09003 8.79753 3193 ft 180 kts 249°
2026-05-04 13:28 50.08574 8.77935 2952 ft 178 kts 249°
2026-05-04 13:28 50.08151 8.76144 2723 ft 176 kts 249°
2026-05-04 13:28 50.07728 8.74350 2484 ft 178 kts 250°
2026-05-04 13:28 50.07298 8.72535 2245 ft 177 kts 249°
2026-05-04 13:29 50.06877 8.70756 2008 ft 174 kts 250°
2026-05-04 13:29 50.06453 8.68968 1776 ft 176 kts 249°
2026-05-04 13:29 50.06037 8.67214 1565 ft 176 kts 250°
2026-05-04 13:29 50.05612 8.65422 1311 ft 168 kts 249°
2026-05-04 13:30 50.05227 8.63799 1098 ft 153 kts 247°
2026-05-04 13:30 50.04873 8.62303 894 ft 143 kts 248°
2026-05-04 13:30 50.04527 8.60856 681 ft 142 kts 250°
2026-05-04 13:30 50.04188 8.59429 515 ft 142 kts 248°
2026-05-04 13:31 50.03850 8.58000 371 ft 136 kts 248°
2026-05-04 13:31 50.03565 8.56805 352 ft 94 kts 249°
2026-05-04 13:31 50.03448 8.56309 360 ft 25 kts 256°
2026-05-04 13:31 50.03440 8.56040 348 ft 21 kts 277°
2026-05-04 13:32 50.03457 8.55877 345 ft 14 kts 279°
2026-05-04 13:32 50.03473 8.55734 347 ft 5 kts 284°
2026-05-04 13:32 50.03475 8.55720 346 ft 3 kts 281°
2026-05-04 13:32 50.03481 8.55677 347 ft 6 kts 281°
2026-05-04 13:33 50.03490 8.55599 345 ft 9 kts 279°
2026-05-04 13:33 50.03491 8.55486 351 ft 12 kts 262°
2026-05-04 13:33 50.03460 8.55338 347 ft 16 kts 250°
2026-05-04 13:33 50.03416 8.55153 350 ft 20 kts 249°
2026-05-04 13:34 50.03365 8.54940 343 ft 22 kts 250°
2026-05-04 13:34 50.03308 8.54701 337 ft 23 kts 250°
2026-05-04 13:34 50.03276 8.54541 334 ft 10 kts 272°
2026-05-04 13:34 50.03321 8.54476 337 ft 6 kts 339°
2026-05-04 13:35 50.03368 8.54449 339 ft 10 kts 340°
2026-05-04 13:35 50.03555 8.54341 348 ft 18 kts 340°
2026-05-04 13:35 50.03646 8.54318 350 ft 12 kts 27°
2026-05-04 13:36 50.03690 8.54450 346 ft 17 kts 70°
2026-05-04 13:36 50.03736 8.54645 352 ft 20 kts 69°
2026-05-04 13:36 50.03786 8.54853 351 ft 21 kts 69°
2026-05-04 13:36 50.03838 8.55073 353 ft 22 kts 70°
2026-05-04 13:37 50.03894 8.55306 349 ft 24 kts 69°
2026-05-04 13:37 50.03953 8.55555 357 ft 25 kts 70°
2026-05-04 13:37 50.04017 8.55821 356 ft 27 kts 69°
2026-05-04 13:37 50.04058 8.55991 354 ft 21 kts 70°
2026-05-04 13:38 50.04130 8.56292 355 ft 23 kts 69°
2026-05-04 13:38 50.04187 8.56530 359 ft 24 kts 69°
2026-05-04 13:38 50.04233 8.56723 359 ft 14 kts 69°
2026-05-04 13:38 50.04287 8.56809 363 ft 12 kts 15°
2026-05-04 13:39 50.04360 8.56832 362 ft 6 kts 11°
2026-05-04 13:39 50.04367 8.56835 364 ft 0 kts 11°
2026-05-04 13:43 50.04377 8.56837 360 ft 3 kts 11°
2026-05-04 13:43 50.04409 8.56846 364 ft 7 kts
2026-05-04 13:44 50.04480 8.56865 359 ft 12 kts 11°
2026-05-04 13:44 50.04568 8.56896 358 ft 15 kts 14°
2026-05-04 13:44 50.04665 8.56943 361 ft 13 kts 23°
2026-05-04 13:44 50.04727 8.56967 362 ft 8 kts 340°
2026-05-04 13:45 50.04744 8.56924 358 ft 3 kts 283°
2026-05-04 13:45 50.04750 8.56893 360 ft 2 kts 290°
2026-05-04 13:45 50.04754 8.56881 358 ft 0 kts 292°